Meteo Giornale » Osservazioni meteo Italia » Milano-Linate

ore: 02:20 - Osservazioni Meteo Milano-Linate
Lat. 45° 26' N Lon. 9° 17' E Alt. 107 metri s.l.m.

sereno Europe/Rome

22 °C

Sereno

Temp. 24 Ore

20 °C

30 °C

Nord

3.7 Km/h

Dew point 17 °C

Umidità 73 %

Visibilità  10 Km

Il sole sorge alle ore 05:32

Il sole tramonta alle ore 21:16

Data e Ora Cielo e Fenomeni T °C DP °C Um. % Pres. hPa Vis. km Vento km/h
Oggi h: 02:20 sereno Sereno 22 17 73 1018 10 N 3.7
Oggi h: 01:50 sereno Sereno 23 16 64 1018 10 N 3.7
Oggi h: 01:20 sereno Sereno 23 16 64 1018 10 N 3.7
Oggi h: 00:50 sereno Sereno 21 16 73 1018 10 N 5.5
Oggi h: 00:20 sereno Sereno 22 18 78 1018 10 N 3.7
Ieri h: 23:50 sereno Sereno 23 17 68 1018 10 N 1.8
Ieri h: 23:20 sereno Sereno 23 18 73 1017 10 N 3.7
Ieri h: 22:50 sereno Sereno 25 16 57 1017 10 N 5.5
Ieri h: 22:20 sereno Sereno 25 16 57 1017 10 N 5.5
Ieri h: 21:50 sereno Sereno 26 16 54 1016 10 S/SE 7.4
Ieri h: 21:20 sereno Sereno 26 15 50 1016 10 N 5.5
Ieri h: 20:50 sereno Sereno 27 15 47 1015 10 S 7.4
Ieri h: 20:20 sereno Sereno 28 16 48 1015 10 S 7.4
Ieri h: 19:50 sereno Sereno 29 17 48 1015 10 S 9.3
Ieri h: 19:20 sereno Sereno 29 15 42 1015 10 S 9.3
Ieri h: 18:50 sereno Sereno 29 15 42 1015 10 S 9.3
Ieri h: 18:20 sereno Sereno 29 14 39 1015 10 S 9.3
Ieri h: 17:50 sereno Sereno 30 15 40 1015 10 S 7.4
Ieri h: 17:20 sereno Sereno 29 15 42 1015 10 S/SE 11.1
Ieri h: 16:50 sereno Sereno 29 15 42 1015 10 S/SE 7.4
Ieri h: 16:20 sereno Sereno 29 16 45 1016 10 S 11.1
Ieri h: 14:50 sereno Sereno 29 15 42 1016 10 S/SO 7.4
Ieri h: 14:20 sereno Sereno 28 15 45 1017 10 S 7.4
Ieri h: 13:50 sereno Sereno 28 16 48 1017 10 S/SO 7.4
Ieri h: 13:20 sereno Sereno 28 16 48 1017 10 N 7.4
Ieri h: 12:50 sereno Sereno 27 16 50 1017 10 S 7.4
Ieri h: 12:20 sereno Sereno 27 15 47 1017 10 S 7.4
Ieri h: 11:50 sereno Sereno 26 16 54 1017 10 SE 9.3
Ieri h: 11:20 sereno Sereno 26 16 54 1017 10 S/SE 9.3
Ieri h: 10:50 sereno Sereno 25 16 57 1017 10 S/SE 11.1
Ieri h: 10:20 sereno Sereno 25 17 61 1017 10 S/SE 11.1
Ieri h: 09:50 sereno Sereno 24 16 60 1017 10 S/SE 14.8
Ieri h: 09:20 sereno Sereno 23 17 68 1017 10 SE 16.7
Ieri h: 08:50 sereno Sereno 24 17 64 1016 10 SE 7.4
Ieri h: 08:20 sereno Sereno 23 15 60 1016 10 E 7.4
Ieri h: 07:50 sereno Sereno 24 16 60 1016 10 N 1.8
Ieri h: 07:20 sereno Sereno 23 15 60 1016 10 N 1.8
Ieri h: 06:50 poco_nuvoloso Poco Nuvoloso 21 16 73 1015 10 N 7.4
Ieri h: 06:20 nuvoloso Nuvoloso 21 16 73 1015 10 NE 13
Ieri h: 05:50 nuvoloso Nuvoloso 20 16 77 1015 10 NE 13
Ieri h: 04:50 nuvoloso Nuvoloso 20 17 82 1015 10 E/NE 16.7
Ieri h: 04:20 nuvoloso Nuvoloso 20 17 82 1015 10 E/NE 16.7
Ieri h: 03:50 nuvoloso_piovaschi Debole Rovescio di Pioggia 22 17 73 1015 10 E/NE 14.8
Ieri h: 03:20 nuvoloso_piovaschi Debole Rovescio di Pioggia 22 17 73 1014 10 N/NE 11.1
Ieri h: 02:50 nuvoloso_piovaschi Debole Rovescio di Pioggia 23 16 64 1014 10 NO 11.1